Time,TemperatureF,DewpointF,PressureIn,WindDirection,WindDirectionDegrees,WindSpeedMPH,WindSpeedGustMPH,Humidity,HourlyPrecipIn,Conditions,Clouds,dailyrainin,SoftwareType,DateUTC
2017-10-19 00:00:00,54.3,45.9,30.18,SW,227,3.0,6.0,73,0.00,,,0.00,meteohub,2017-10-19 04:00:00,
2017-10-19 00:05:00,54.1,45.7,30.18,SSW,199,2.0,4.0,73,0.00,,,0.00,meteohub,2017-10-19 04:05:00,
2017-10-19 00:10:00,54.1,46.0,30.18,SSW,207,2.0,4.0,74,0.00,,,0.00,meteohub,2017-10-19 04:10:00,
2017-10-19 00:15:00,54.1,46.0,30.18,SSW,212,1.0,5.0,74,0.00,,,0.00,meteohub,2017-10-19 04:15:00,
2017-10-19 00:21:00,54.1,46.0,30.18,SW,236,0.0,5.0,74,0.00,,,0.00,meteohub,2017-10-19 04:21:00,
2017-10-19 00:26:00,54.0,45.9,30.18,SW,218,1.0,5.0,74,0.00,,,0.00,meteohub,2017-10-19 04:26:00,
2017-10-19 00:31:00,54.0,45.9,30.18,SSW,213,0.0,4.0,74,0.00,,,0.00,meteohub,2017-10-19 04:31:00,
2017-10-19 00:36:00,53.8,45.7,30.18,SSW,213,0.0,4.0,74,0.00,,,0.00,meteohub,2017-10-19 04:36:00,
2017-10-19 00:41:00,53.6,45.9,30.18,SSW,207,1.0,4.0,75,0.00,,,0.00,meteohub,2017-10-19 04:41:00,
2017-10-19 00:46:00,53.4,45.7,30.18,SSW,197,1.0,3.0,75,0.00,,,0.00,meteohub,2017-10-19 04:46:00,
2017-10-19 00:52:00,53.4,45.7,30.18,SSW,197,1.0,3.0,75,0.00,,,0.00,meteohub,2017-10-19 04:52:00,
2017-10-19 00:57:00,53.2,45.9,30.18,SSW,197,0.0,3.0,76,0.00,,,0.00,meteohub,2017-10-19 04:57:00,
2017-10-19 01:02:00,53.1,45.7,30.18,SSW,197,0.0,2.0,76,0.00,,,0.00,meteohub,2017-10-19 05:02:00,
2017-10-19 01:07:00,52.9,45.5,30.18,SSW,197,0.0,2.0,76,0.00,,,0.00,meteohub,2017-10-19 05:07:00,
2017-10-19 01:12:00,52.5,45.5,30.18,SSW,197,0.0,2.0,77,0.00,,,0.00,meteohub,2017-10-19 05:12:00,
2017-10-19 01:17:00,52.3,45.7,30.18,SSW,198,1.0,2.0,78,0.00,,,0.00,meteohub,2017-10-19 05:17:00,
2017-10-19 01:22:00,52.2,45.5,30.18,SSW,198,0.0,2.0,78,0.00,,,0.00,meteohub,2017-10-19 05:22:00,
2017-10-19 01:27:00,52.2,45.5,30.19,SSW,198,1.0,2.0,78,0.00,,,0.00,meteohub,2017-10-19 05:27:00,
2017-10-19 01:32:00,52.0,45.7,30.19,SSW,198,1.0,2.0,79,0.00,,,0.00,meteohub,2017-10-19 05:32:00,
2017-10-19 01:37:00,51.8,45.5,30.19,SSW,205,1.0,2.0,79,0.00,,,0.00,meteohub,2017-10-19 05:37:00,
2017-10-19 01:42:00,51.6,45.3,30.19,SSW,205,1.0,3.0,79,0.00,,,0.00,meteohub,2017-10-19 05:42:00,
2017-10-19 01:47:00,51.6,45.3,30.19,SSW,205,0.0,3.0,79,0.00,,,0.00,meteohub,2017-10-19 05:47:00,
2017-10-19 01:52:00,51.6,45.7,30.19,SSW,205,0.0,3.0,80,0.00,,,0.00,meteohub,2017-10-19 05:52:00,
2017-10-19 01:57:00,51.4,45.5,30.19,SSW,205,0.0,3.0,80,0.00,,,0.00,meteohub,2017-10-19 05:57:00,
2017-10-19 02:02:00,51.4,45.5,30.19,SSW,205,0.0,0.0,80,0.00,,,0.00,meteohub,2017-10-19 06:02:00,
2017-10-19 02:07:00,51.4,45.5,30.19,SSW,205,0.0,0.0,80,0.00,,,0.00,meteohub,2017-10-19 06:07:00,
2017-10-19 02:12:00,51.4,45.5,30.19,SSW,205,0.0,0.0,80,0.00,,,0.00,meteohub,2017-10-19 06:12:00,
2017-10-19 02:17:00,51.3,45.3,30.18,SSW,205,0.0,0.0,80,0.00,,,0.00,meteohub,2017-10-19 06:17:00,
2017-10-19 02:22:00,51.3,45.3,30.18,SSW,205,0.0,0.0,80,0.00,,,0.00,meteohub,2017-10-19 06:22:00,
2017-10-19 02:27:00,51.1,45.1,30.18,SSW,205,0.0,0.0,80,0.00,,,0.00,meteohub,2017-10-19 06:27:00,
2017-10-19 02:32:00,50.9,45.3,30.18,SSW,205,0.0,0.0,81,0.00,,,0.00,meteohub,2017-10-19 06:32:00,
2017-10-19 02:37:00,50.7,45.1,30.18,SSW,205,0.0,0.0,81,0.00,,,0.00,meteohub,2017-10-19 06:37:00,
2017-10-19 02:42:00,50.7,45.1,30.18,SSW,207,0.0,0.0,81,0.00,,,0.00,meteohub,2017-10-19 06:42:00,
2017-10-19 02:47:00,50.7,45.1,30.18,SSW,209,0.0,0.0,81,0.00,,,0.00,meteohub,2017-10-19 06:47:00,
2017-10-19 02:52:00,50.5,45.0,30.18,SSW,209,0.0,0.0,81,0.00,,,0.00,meteohub,2017-10-19 06:52:00,
2017-10-19 02:57:00,50.5,45.3,30.18,SSW,210,0.0,0.0,82,0.00,,,0.00,meteohub,2017-10-19 06:57:00,
2017-10-19 03:03:00,50.4,45.1,30.18,SSW,210,0.0,0.0,82,0.00,,,0.00,meteohub,2017-10-19 07:03:00,
2017-10-19 03:08:00,50.4,45.1,30.18,SSW,210,0.0,0.0,82,0.00,,,0.00,meteohub,2017-10-19 07:08:00,
2017-10-19 03:13:00,50.2,45.1,30.18,SSW,210,0.0,0.0,83,0.00,,,0.00,meteohub,2017-10-19 07:13:00,
2017-10-19 03:18:00,50.2,45.1,30.18,SSW,210,0.0,0.0,83,0.00,,,0.00,meteohub,2017-10-19 07:18:00,
2017-10-19 03:23:00,49.8,44.8,30.19,SSW,210,0.0,0.0,83,0.00,,,0.00,meteohub,2017-10-19 07:23:00,
2017-10-19 03:28:00,49.8,44.8,30.18,SSW,210,0.0,0.0,83,0.00,,,0.00,meteohub,2017-10-19 07:28:00,
2017-10-19 03:34:00,49.6,44.8,30.18,SSW,210,0.0,0.0,83,0.00,,,0.00,meteohub,2017-10-19 07:34:00,
2017-10-19 03:39:00,49.6,44.8,30.18,SSW,196,1.0,0.0,83,0.00,,,0.00,meteohub,2017-10-19 07:39:00,
2017-10-19 03:44:00,49.6,45.0,30.18,WSW,237,1.0,1.0,84,0.00,,,0.00,meteohub,2017-10-19 07:44:00,
2017-10-19 03:49:00,49.5,44.8,30.18,SW,221,0.0,2.0,84,0.00,,,0.00,meteohub,2017-10-19 07:49:00,
2017-10-19 03:54:00,49.5,44.8,30.18,SW,221,0.0,3.0,84,0.00,,,0.00,meteohub,2017-10-19 07:54:00,
2017-10-19 03:59:00,49.5,44.8,30.18,SW,221,0.0,3.0,84,0.00,,,0.00,meteohub,2017-10-19 07:59:00,
2017-10-19 04:04:00,49.5,44.8,30.18,SSW,194,0.0,1.0,84,0.00,,,0.00,meteohub,2017-10-19 08:04:00,
2017-10-19 04:10:00,49.5,44.8,30.18,South,186,0.0,2.0,84,0.00,,,0.00,meteohub,2017-10-19 08:10:00,
2017-10-19 04:15:00,49.5,44.8,30.18,South,187,0.0,3.0,84,0.00,,,0.00,meteohub,2017-10-19 08:15:00,
2017-10-19 04:20:00,49.5,44.8,30.18,South,187,1.0,3.0,84,0.00,,,0.00,meteohub,2017-10-19 08:20:00,
2017-10-19 04:25:00,49.3,44.6,30.18,SSW,194,0.0,2.0,84,0.00,,,0.00,meteohub,2017-10-19 08:25:00,
2017-10-19 04:30:00,48.9,44.2,30.18,SSW,194,0.0,2.0,84,0.00,,,0.00,meteohub,2017-10-19 08:30:00,
2017-10-19 04:35:00,48.7,44.4,30.19,SSW,192,1.0,2.0,85,0.00,,,0.00,meteohub,2017-10-19 08:35:00,
2017-10-19 04:41:00,48.6,44.2,30.18,SSW,197,1.0,2.0,85,0.00,,,0.00,meteohub,2017-10-19 08:41:00,
2017-10-19 04:46:00,48.6,44.6,30.19,SSW,197,0.0,2.0,86,0.00,,,0.00,meteohub,2017-10-19 08:46:00,
2017-10-19 04:51:00,48.6,44.6,30.19,SSW,198,1.0,2.0,86,0.00,,,0.00,meteohub,2017-10-19 08:51:00,
2017-10-19 04:56:00,48.6,44.2,30.19,SSW,198,0.0,2.0,85,0.00,,,0.00,meteohub,2017-10-19 08:56:00,
2017-10-19 05:01:00,48.4,44.4,30.19,SSW,198,0.0,2.0,86,0.00,,,0.00,meteohub,2017-10-19 09:01:00,
2017-10-19 05:07:00,48.4,44.4,30.19,SSW,198,1.0,2.0,86,0.00,,,0.00,meteohub,2017-10-19 09:07:00,
2017-10-19 05:17:00,48.0,44.1,30.19,SSW,198,0.0,2.0,86,0.00,,,0.00,meteohub,2017-10-19 09:17:00,
2017-10-19 05:22:00,48.0,44.1,30.19,SSW,198,0.0,2.0,86,0.00,,,0.00,meteohub,2017-10-19 09:22:00,
2017-10-19 05:27:00,47.8,43.9,30.19,SSW,198,0.0,2.0,86,0.00,,,0.00,meteohub,2017-10-19 09:27:00,
2017-10-19 05:32:00,47.8,44.2,30.19,SSW,198,0.0,0.0,87,0.00,,,0.00,meteohub,2017-10-19 09:32:00,
2017-10-19 05:37:00,47.8,44.2,30.19,SSW,200,1.0,0.0,87,0.00,,,0.00,meteohub,2017-10-19 09:37:00,
2017-10-19 05:42:00,47.8,44.2,30.19,SSW,199,0.0,2.0,87,0.00,,,0.00,meteohub,2017-10-19 09:42:00,
2017-10-19 05:47:00,47.8,44.2,30.19,SW,224,1.0,4.0,87,0.00,,,0.00,meteohub,2017-10-19 09:47:00,
2017-10-19 05:52:00,48.0,44.4,30.19,SSW,200,1.0,4.0,87,0.00,,,0.00,meteohub,2017-10-19 09:52:00,
2017-10-19 05:57:00,48.0,44.4,30.19,South,183,0.0,4.0,87,0.00,,,0.00,meteohub,2017-10-19 09:57:00,
2017-10-19 05:58:00,48.2,44.6,30.19,South,183,0.0,4.0,87,0.00,,,0.00,meteohub,2017-10-19 09:58:00,
2017-10-19 06:03:00,48.2,44.2,30.19,SSW,197,1.0,3.0,86,0.00,,,0.00,meteohub,2017-10-19 10:03:00,
2017-10-19 06:08:00,48.4,44.4,30.19,SSW,211,1.0,3.0,86,0.00,,,0.00,meteohub,2017-10-19 10:08:00,
2017-10-19 06:14:00,48.6,44.6,30.19,SSW,204,1.0,3.0,86,0.00,,,0.00,meteohub,2017-10-19 10:14:00,
2017-10-19 06:19:00,48.6,44.6,30.19,SSW,202,2.0,3.0,86,0.00,,,0.00,meteohub,2017-10-19 10:19:00,
2017-10-19 06:24:00,48.6,44.6,30.19,SW,217,1.0,3.0,86,0.00,,,0.00,meteohub,2017-10-19 10:24:00,
2017-10-19 06:29:00,48.6,44.6,30.19,SSW,213,2.0,3.0,86,0.00,,,0.00,meteohub,2017-10-19 10:29:00,
2017-10-19 06:39:00,48.7,44.8,30.19,SW,216,2.0,4.0,86,0.00,,,0.00,meteohub,2017-10-19 10:39:00,
2017-10-19 06:45:00,48.7,44.8,30.19,SSW,201,1.0,4.0,86,0.00,,,0.00,meteohub,2017-10-19 10:45:00,
2017-10-19 06:50:00,48.6,44.6,30.19,SW,222,2.0,3.0,86,0.00,,,0.00,meteohub,2017-10-19 10:50:00,
2017-10-19 06:55:00,48.6,44.6,30.19,SSW,213,0.0,3.0,86,0.00,,,0.00,meteohub,2017-10-19 10:55:00,
2017-10-19 07:00:00,48.4,44.4,30.19,South,181,1.0,3.0,86,0.00,,,0.00,meteohub,2017-10-19 11:00:00,
2017-10-19 07:05:00,48.4,44.4,30.19,SSW,211,0.0,3.0,86,0.00,,,0.00,meteohub,2017-10-19 11:05:00,
2017-10-19 07:10:00,48.2,44.2,30.19,South,189,1.0,3.0,86,0.00,,,0.00,meteohub,2017-10-19 11:10:00,
2017-10-19 07:16:00,48.2,44.2,30.19,SSW,201,1.0,3.0,86,0.00,,,0.00,meteohub,2017-10-19 11:16:00,
2017-10-19 07:21:00,48.0,44.1,30.19,SSW,202,2.0,3.0,86,0.00,,,0.00,meteohub,2017-10-19 11:21:00,
2017-10-19 07:26:00,48.0,44.1,30.19,SW,214,1.0,3.0,86,0.00,,,0.00,meteohub,2017-10-19 11:26:00,
2017-10-19 07:31:00,47.8,43.9,30.19,South,187,1.0,3.0,86,0.00,,,0.00,meteohub,2017-10-19 11:31:00,
2017-10-19 07:36:00,47.8,44.2,30.19,SSW,213,2.0,3.0,87,0.00,,,0.00,meteohub,2017-10-19 11:36:00,
2017-10-19 07:41:00,47.8,44.2,30.19,SW,221,1.0,3.0,87,0.00,,,0.00,meteohub,2017-10-19 11:41:00,
2017-10-19 07:47:00,48.0,44.4,30.19,SW,220,3.0,3.0,87,0.00,,,0.00,meteohub,2017-10-19 11:47:00,
2017-10-19 07:52:00,48.0,44.4,30.19,South,191,1.0,3.0,87,0.00,,,0.00,meteohub,2017-10-19 11:52:00,
2017-10-19 07:57:00,48.0,44.4,30.19,SSW,202,1.0,3.0,87,0.00,,,0.00,meteohub,2017-10-19 11:57:00,
2017-10-19 08:02:00,47.8,44.2,30.19,SW,223,2.0,3.0,87,0.00,,,0.00,meteohub,2017-10-19 12:02:00,
2017-10-19 08:07:00,48.0,44.4,30.19,SSW,212,2.0,4.0,87,0.00,,,0.00,meteohub,2017-10-19 12:07:00,
2017-10-19 08:08:00,48.0,44.4,30.19,SSW,197,2.0,4.0,87,0.00,,,0.00,meteohub,2017-10-19 12:08:00,
2017-10-19 08:13:00,47.8,44.2,30.19,SSW,211,1.0,4.0,87,0.00,,,0.00,meteohub,2017-10-19 12:13:00,
2017-10-19 08:18:00,47.8,44.2,30.20,SW,217,2.0,4.0,87,0.00,,,0.00,meteohub,2017-10-19 12:18:00,
2017-10-19 08:24:00,48.0,44.4,30.20,SSW,213,3.0,3.0,87,0.00,,,0.00,meteohub,2017-10-19 12:24:00,
2017-10-19 08:29:00,48.0,44.4,30.20,SW,217,2.0,4.0,87,0.00,,,0.00,meteohub,2017-10-19 12:29:00,
2017-10-19 08:34:00,48.2,44.6,30.20,SW,228,2.0,4.0,87,0.00,,,0.00,meteohub,2017-10-19 12:34:00,
2017-10-19 08:39:00,48.4,44.8,30.20,SSW,199,2.0,4.0,87,0.00,,,0.00,meteohub,2017-10-19 12:39:00,
2017-10-19 08:44:00,48.7,45.0,30.21,SW,223,2.0,5.0,87,0.00,,,0.00,meteohub,2017-10-19 12:44:00,
2017-10-19 08:49:00,48.9,45.0,30.21,SSE,165,2.0,5.0,86,0.00,,,0.00,meteohub,2017-10-19 12:49:00,
2017-10-19 08:54:00,49.3,45.3,30.21,SSW,192,2.0,5.0,86,0.00,,,0.00,meteohub,2017-10-19 12:54:00,
2017-10-19 09:00:00,49.8,45.5,30.21,SSW,196,2.0,5.0,85,0.00,,,0.00,meteohub,2017-10-19 13:00:00,
2017-10-19 09:05:00,50.2,45.5,30.21,SSW,209,2.0,5.0,84,0.00,,,0.00,meteohub,2017-10-19 13:05:00,
2017-10-19 09:10:00,50.5,45.9,30.22,SSW,204,2.0,6.0,84,0.00,,,0.00,meteohub,2017-10-19 13:10:00,
2017-10-19 09:15:00,51.1,46.0,30.22,SW,236,2.0,6.0,83,0.00,,,0.00,meteohub,2017-10-19 13:15:00,
2017-10-19 09:20:00,51.4,46.2,30.22,SW,215,3.0,6.0,82,0.00,,,0.00,meteohub,2017-10-19 13:20:00,
2017-10-19 09:25:00,51.8,46.4,30.22,SW,223,2.0,6.0,82,0.00,,,0.00,meteohub,2017-10-19 13:25:00,
2017-10-19 09:31:00,52.2,46.6,30.22,SSW,193,0.0,6.0,81,0.00,,,0.00,meteohub,2017-10-19 13:31:00,
2017-10-19 09:36:00,52.5,46.6,30.22,SSW,202,4.0,6.0,80,0.00,,,0.00,meteohub,2017-10-19 13:36:00,
2017-10-19 09:41:00,53.1,47.1,30.22,SW,227,0.0,6.0,80,0.00,,,0.00,meteohub,2017-10-19 13:41:00,
2017-10-19 09:46:00,53.6,47.3,30.22,SSW,206,3.0,6.0,79,0.00,,,0.00,meteohub,2017-10-19 13:46:00,
2017-10-19 09:51:00,54.1,47.5,30.22,SW,234,2.0,7.0,78,0.00,,,0.00,meteohub,2017-10-19 13:51:00,
2017-10-19 09:56:00,54.7,47.7,30.22,SW,229,0.0,7.0,77,0.00,,,0.00,meteohub,2017-10-19 13:56:00,
2017-10-19 10:01:00,55.0,48.0,30.22,SW,235,2.0,7.0,77,0.00,,,0.00,meteohub,2017-10-19 14:01:00,
2017-10-19 10:07:00,55.8,48.0,30.22,West,277,4.0,7.0,75,0.00,,,0.00,meteohub,2017-10-19 14:07:00,
2017-10-19 10:12:00,56.1,48.4,30.22,SW,228,3.0,10.0,75,0.00,,,0.00,meteohub,2017-10-19 14:12:00,
2017-10-19 10:17:00,56.7,48.0,30.22,SSW,199,6.0,10.0,73,0.00,,,0.00,meteohub,2017-10-19 14:17:00,
2017-10-19 10:22:00,57.0,48.4,30.22,WSW,243,3.0,8.0,73,0.00,,,0.00,meteohub,2017-10-19 14:22:00,
2017-10-19 10:27:00,57.6,48.9,30.22,SW,222,4.0,9.0,73,0.00,,,0.00,meteohub,2017-10-19 14:27:00,
2017-10-19 10:32:00,57.9,48.9,30.22,South,171,1.0,9.0,72,0.00,,,0.00,meteohub,2017-10-19 14:32:00,
2017-10-19 10:37:00,58.6,49.3,30.22,SW,231,6.0,8.0,71,0.00,,,0.00,meteohub,2017-10-19 14:37:00,
2017-10-19 10:42:00,58.8,48.7,30.22,SSW,211,5.0,11.0,69,0.00,,,0.00,meteohub,2017-10-19 14:42:00,
2017-10-19 10:47:00,59.2,49.1,30.22,SW,231,2.0,11.0,69,0.00,,,0.00,meteohub,2017-10-19 14:47:00,
2017-10-19 10:52:00,59.5,48.9,30.22,West,277,6.0,11.0,68,0.00,,,0.00,meteohub,2017-10-19 14:52:00,
2017-10-19 10:57:00,60.1,49.5,30.22,South,175,3.0,10.0,68,0.00,,,0.00,meteohub,2017-10-19 14:57:00,
2017-10-19 11:02:00,60.4,49.8,30.22,WSW,239,2.0,10.0,68,0.00,,,0.00,meteohub,2017-10-19 15:02:00,
2017-10-19 11:07:00,61.0,50.0,30.22,SW,215,5.0,10.0,67,0.00,,,0.00,meteohub,2017-10-19 15:07:00,
2017-10-19 11:12:00,61.3,49.8,30.22,West,261,7.0,10.0,66,0.00,,,0.00,meteohub,2017-10-19 15:12:00,
2017-10-19 11:17:00,61.5,49.6,30.22,SSW,198,5.0,10.0,65,0.00,,,0.00,meteohub,2017-10-19 15:17:00,
2017-10-19 11:22:00,62.1,49.8,30.22,West,267,4.0,11.0,64,0.00,,,0.00,meteohub,2017-10-19 15:22:00,
2017-10-19 11:27:00,62.2,50.0,30.22,SW,224,1.0,11.0,64,0.00,,,0.00,meteohub,2017-10-19 15:27:00,
2017-10-19 11:32:00,63.0,50.2,30.22,SW,234,3.0,11.0,63,0.00,,,0.00,meteohub,2017-10-19 15:32:00,
2017-10-19 11:37:00,63.3,50.0,30.22,SW,220,5.0,11.0,62,0.00,,,0.00,meteohub,2017-10-19 15:37:00,
2017-10-19 11:42:00,63.5,49.8,30.22,SSW,198,3.0,10.0,61,0.00,,,0.00,meteohub,2017-10-19 15:42:00,
2017-10-19 11:47:00,63.9,50.5,30.22,SSW,209,5.0,12.0,62,0.00,,,0.00,meteohub,2017-10-19 15:47:00,
2017-10-19 11:52:00,64.2,50.5,30.21,WSW,244,4.0,12.0,61,0.00,,,0.00,meteohub,2017-10-19 15:52:00,
2017-10-19 11:57:00,64.6,50.9,30.21,SW,227,3.0,10.0,61,0.00,,,0.00,meteohub,2017-10-19 15:57:00,
2017-10-19 12:02:00,64.9,50.7,30.21,West,267,3.0,10.0,60,0.00,,,0.00,meteohub,2017-10-19 16:02:00,
2017-10-19 12:07:00,65.1,50.4,30.21,WSW,245,3.0,10.0,59,0.00,,,0.00,meteohub,2017-10-19 16:07:00,
2017-10-19 12:12:00,65.1,51.3,30.21,West,269,3.0,8.0,61,0.00,,,0.00,meteohub,2017-10-19 16:12:00,
2017-10-19 12:17:00,65.5,50.7,30.21,SW,231,10.0,10.0,59,0.00,,,0.00,meteohub,2017-10-19 16:17:00,
2017-10-19 12:22:00,65.7,50.9,30.21,WSW,239,3.0,10.0,59,0.00,,,0.00,meteohub,2017-10-19 16:22:00,
2017-10-19 12:27:00,66.0,51.3,30.21,WSW,246,5.0,10.0,59,0.00,,,0.00,meteohub,2017-10-19 16:27:00,
2017-10-19 12:32:00,66.2,51.4,30.21,West,281,3.0,11.0,59,0.00,,,0.00,meteohub,2017-10-19 16:32:00,
2017-10-19 12:37:00,66.4,51.1,30.21,West,260,1.0,11.0,58,0.00,,,0.00,meteohub,2017-10-19 16:37:00,
2017-10-19 12:42:00,66.7,51.1,30.21,SW,224,2.0,11.0,57,0.00,,,0.00,meteohub,2017-10-19 16:42:00,
2017-10-19 12:47:00,66.9,51.3,30.21,South,176,4.0,8.0,57,0.00,,,0.00,meteohub,2017-10-19 16:47:00,
2017-10-19 12:52:00,67.3,51.4,30.20,NW,311,6.0,9.0,57,0.00,,,0.00,meteohub,2017-10-19 16:52:00,
2017-10-19 12:57:00,67.3,51.1,30.20,WSW,238,2.0,9.0,56,0.00,,,0.00,meteohub,2017-10-19 16:57:00,
2017-10-19 13:02:00,67.6,51.8,30.21,SSW,193,5.0,9.0,57,0.00,,,0.00,meteohub,2017-10-19 17:02:00,
2017-10-19 13:07:00,67.8,51.6,30.20,West,269,2.0,9.0,56,0.00,,,0.00,meteohub,2017-10-19 17:07:00,
2017-10-19 13:12:00,67.8,51.6,30.20,SW,229,2.0,9.0,56,0.00,,,0.00,meteohub,2017-10-19 17:12:00,
2017-10-19 13:17:00,68.0,51.8,30.20,West,260,3.0,9.0,56,0.00,,,0.00,meteohub,2017-10-19 17:17:00,
2017-10-19 13:22:00,68.0,51.8,30.20,SSW,202,2.0,8.0,56,0.00,,,0.00,meteohub,2017-10-19 17:22:00,
2017-10-19 13:27:00,68.4,52.0,30.20,West,273,2.0,8.0,56,0.00,,,0.00,meteohub,2017-10-19 17:27:00,
2017-10-19 13:32:00,68.5,51.8,30.19,SW,221,6.0,8.0,55,0.00,,,0.00,meteohub,2017-10-19 17:32:00,
2017-10-19 13:37:00,69.1,51.8,30.19,SSW,211,2.0,8.0,54,0.00,,,0.00,meteohub,2017-10-19 17:37:00,
2017-10-19 13:42:00,69.1,51.8,30.19,SW,224,2.0,8.0,54,0.00,,,0.00,meteohub,2017-10-19 17:42:00,
2017-10-19 13:48:00,69.3,52.0,30.19,SSE,154,7.0,13.0,54,0.00,,,0.00,meteohub,2017-10-19 17:48:00,
2017-10-19 13:53:00,69.6,52.2,30.19,WSW,251,1.0,13.0,54,0.00,,,0.00,meteohub,2017-10-19 17:53:00,
2017-10-19 13:58:00,69.6,51.8,30.18,WSW,257,3.0,11.0,53,0.00,,,0.00,meteohub,2017-10-19 17:58:00,
2017-10-19 14:03:00,69.6,52.2,30.18,West,272,3.0,11.0,54,0.00,,,0.00,meteohub,2017-10-19 18:03:00,
2017-10-19 14:08:00,69.8,52.9,30.18,West,281,2.0,10.0,55,0.00,,,0.00,meteohub,2017-10-19 18:08:00,
2017-10-19 14:13:00,70.0,52.0,30.19,SW,225,4.0,10.0,53,0.00,,,0.00,meteohub,2017-10-19 18:13:00,
2017-10-19 14:18:00,70.5,52.5,30.18,SW,221,1.0,11.0,53,0.00,,,0.00,meteohub,2017-10-19 18:18:00,
2017-10-19 14:24:00,70.9,52.3,30.18,WSW,248,4.0,11.0,52,0.00,,,0.00,meteohub,2017-10-19 18:24:00,
2017-10-19 14:29:00,71.2,53.2,30.18,SW,218,1.0,11.0,53,0.00,,,0.00,meteohub,2017-10-19 18:29:00,
2017-10-19 14:34:00,71.2,52.7,30.18,SW,229,8.0,8.0,52,0.00,,,0.00,meteohub,2017-10-19 18:34:00,
2017-10-19 14:39:00,71.8,52.7,30.18,SW,236,4.0,8.0,51,0.00,,,0.00,meteohub,2017-10-19 18:39:00,
2017-10-19 14:44:00,71.8,52.7,30.17,SW,225,4.0,8.0,51,0.00,,,0.00,meteohub,2017-10-19 18:44:00,
2017-10-19 14:49:00,72.1,53.1,30.17,SW,215,3.0,9.0,51,0.00,,,0.00,meteohub,2017-10-19 18:49:00,
2017-10-19 14:55:00,72.3,53.2,30.17,SW,234,1.0,9.0,51,0.00,,,0.00,meteohub,2017-10-19 18:55:00,
2017-10-19 15:00:00,72.7,53.4,30.17,SW,223,2.0,7.0,51,0.00,,,0.00,meteohub,2017-10-19 19:00:00,
2017-10-19 15:05:00,72.9,52.5,30.17,WSW,241,1.0,7.0,49,0.00,,,0.00,meteohub,2017-10-19 19:05:00,
2017-10-19 15:10:00,73.2,52.3,30.17,SW,227,4.0,7.0,48,0.00,,,0.00,meteohub,2017-10-19 19:10:00,
2017-10-19 15:15:00,73.2,52.9,30.17,SSW,202,3.0,8.0,49,0.00,,,0.00,meteohub,2017-10-19 19:15:00,
2017-10-19 15:20:00,73.0,52.7,30.17,SW,215,3.0,8.0,49,0.00,,,0.00,meteohub,2017-10-19 19:20:00,
2017-10-19 15:25:00,72.9,52.5,30.17,WNW,294,3.0,7.0,49,0.00,,,0.00,meteohub,2017-10-19 19:25:00,
2017-10-19 15:31:00,72.9,52.5,30.17,WSW,254,2.0,7.0,49,0.00,,,0.00,meteohub,2017-10-19 19:31:00,
2017-10-19 15:36:00,72.9,53.1,30.17,SSW,211,3.0,7.0,50,0.00,,,0.00,meteohub,2017-10-19 19:36:00,
2017-10-19 15:41:00,73.0,52.7,30.17,West,267,4.0,10.0,49,0.00,,,0.00,meteohub,2017-10-19 19:41:00,
2017-10-19 15:46:00,72.9,53.1,30.17,WSW,251,5.0,11.0,50,0.00,,,0.00,meteohub,2017-10-19 19:46:00,
2017-10-19 15:51:00,72.9,53.1,30.16,SSW,207,3.0,11.0,50,0.00,,,0.00,meteohub,2017-10-19 19:51:00,
2017-10-19 15:56:00,73.2,52.9,30.17,SW,227,2.0,11.0,49,0.00,,,0.00,meteohub,2017-10-19 19:56:00,
2017-10-19 15:57:00,73.2,52.9,30.17,West,268,2.0,11.0,49,0.00,,,0.00,meteohub,2017-10-19 19:57:00,
2017-10-19 16:02:00,73.6,53.2,30.17,SW,233,4.0,11.0,49,0.00,,,0.00,meteohub,2017-10-19 20:02:00,
2017-10-19 16:07:00,73.2,52.3,30.17,WSW,244,2.0,11.0,48,0.00,,,0.00,meteohub,2017-10-19 20:07:00,
2017-10-19 16:12:00,73.4,53.6,30.17,SE,125,2.0,10.0,50,0.00,,,0.00,meteohub,2017-10-19 20:12:00,
2017-10-19 16:17:00,73.8,52.3,30.17,SW,225,6.0,10.0,47,0.00,,,0.00,meteohub,2017-10-19 20:17:00,
2017-10-19 16:22:00,73.4,53.1,30.17,SW,219,3.0,11.0,49,0.00,,,0.00,meteohub,2017-10-19 20:22:00,
2017-10-19 16:27:00,73.2,52.3,30.17,SW,220,3.0,11.0,48,0.00,,,0.00,meteohub,2017-10-19 20:27:00,
2017-10-19 16:32:00,73.6,52.7,30.17,SSW,200,2.0,11.0,48,0.00,,,0.00,meteohub,2017-10-19 20:32:00,
2017-10-19 16:37:00,73.8,52.9,30.17,SW,215,5.0,9.0,48,0.00,,,0.00,meteohub,2017-10-19 20:37:00,
2017-10-19 16:42:00,73.8,52.9,30.17,SW,215,4.0,14.0,48,0.00,,,0.00,meteohub,2017-10-19 20:42:00,
2017-10-19 16:47:00,73.8,52.3,30.17,SW,224,4.0,14.0,47,0.00,,,0.00,meteohub,2017-10-19 20:47:00,
2017-10-19 16:52:00,73.8,52.3,30.16,SW,232,3.0,14.0,47,0.00,,,0.00,meteohub,2017-10-19 20:52:00,
2017-10-19 16:57:00,73.6,52.2,30.16,South,186,6.0,9.0,47,0.00,,,0.00,meteohub,2017-10-19 20:57:00,
2017-10-19 17:02:00,73.6,51.4,30.16,SSW,200,6.0,9.0,46,0.00,,,0.00,meteohub,2017-10-19 21:02:00,
2017-10-19 17:07:00,73.4,52.0,30.16,SW,215,2.0,9.0,47,0.00,,,0.00,meteohub,2017-10-19 21:07:00,
2017-10-19 17:12:00,73.4,51.4,30.16,SSW,193,3.0,9.0,46,0.00,,,0.00,meteohub,2017-10-19 21:12:00,
2017-10-19 17:17:00,73.6,52.2,30.16,SW,225,1.0,9.0,47,0.00,,,0.00,meteohub,2017-10-19 21:17:00,
2017-10-19 17:22:00,73.6,52.2,30.16,West,267,3.0,7.0,47,0.00,,,0.00,meteohub,2017-10-19 21:22:00,
2017-10-19 17:27:00,73.6,51.4,30.16,SW,230,3.0,7.0,46,0.00,,,0.00,meteohub,2017-10-19 21:27:00,
2017-10-19 17:32:00,73.4,52.0,30.16,SW,216,4.0,6.0,47,0.00,,,0.00,meteohub,2017-10-19 21:32:00,
2017-10-19 17:37:00,73.2,51.8,30.16,South,179,4.0,11.0,47,0.00,,,0.00,meteohub,2017-10-19 21:37:00,
2017-10-19 17:42:00,72.9,51.4,30.16,WSW,246,3.0,11.0,47,0.00,,,0.00,meteohub,2017-10-19 21:42:00,
2017-10-19 17:47:00,72.7,51.8,30.16,SW,236,2.0,11.0,48,0.00,,,0.00,meteohub,2017-10-19 21:47:00,
2017-10-19 17:52:00,72.7,52.3,30.16,SW,236,0.0,11.0,49,0.00,,,0.00,meteohub,2017-10-19 21:52:00,
2017-10-19 17:57:00,72.7,52.3,30.17,SW,221,4.0,11.0,49,0.00,,,0.00,meteohub,2017-10-19 21:57:00,
2017-10-19 18:02:00,72.3,52.2,30.17,SW,234,3.0,6.0,49,0.00,,,0.00,meteohub,2017-10-19 22:02:00,
2017-10-19 18:07:00,72.0,51.8,30.16,SSW,213,2.0,6.0,49,0.00,,,0.00,meteohub,2017-10-19 22:07:00,
2017-10-19 18:12:00,71.4,52.3,30.16,WSW,242,1.0,7.0,51,0.00,,,0.00,meteohub,2017-10-19 22:12:00,
2017-10-19 18:17:00,70.9,51.8,30.16,SW,232,4.0,7.0,51,0.00,,,0.00,meteohub,2017-10-19 22:17:00,
2017-10-19 18:22:00,70.3,51.8,30.17,SW,219,3.0,7.0,52,0.00,,,0.00,meteohub,2017-10-19 22:22:00,
2017-10-19 18:27:00,70.0,51.6,30.17,SSW,198,2.0,7.0,52,0.00,,,0.00,meteohub,2017-10-19 22:27:00,
2017-10-19 18:32:00,69.6,51.8,30.17,SW,235,2.0,7.0,53,0.00,,,0.00,meteohub,2017-10-19 22:32:00,